Champaign, IL

6:43 PM CST on February 19, 2018 (GMT -0600)
Univ Of Illinois-Willard

Weather History for KCMI - May, 2013

Change the Weather History Date:

Thursday, May 30, 2013

  Actual Average Record
Temperature  
Mean Temperature 79 °F 68 °F  
Max Temperature 90 °F 80 °F 93 °F (2006)
Min Temperature 67 °F 56 °F 44 °F (2001)
Degree Days  
Heating Degree Days 0 2  
Month to date heating degree days 113 139  
Since 1 July heating degree days 5638 5803  
Cooling Degree Days 14 5  
Month to date cooling degree days 120 77  
Year to date cooling degree days 128 88  
Growing Degree Days 27 (Base 50)    
Moisture  
Dew Point 65 °F    
Average Humidity 61    
Maximum Humidity 79    
Minimum Humidity 43    
Precipitation  
Precipitation 0.00 in 0.14 in 2.43 in (2015)
Month to date precipitation 2.59 4.41  
Year to date precipitation 14.83 15.02  
Sea Level Pressure  
Sea Level Pressure 29.92 in    
Wind  
Wind Speed 21 mph (South)    
Max Wind Speed 39 mph    
Max Gust Speed 62 mph    
Visibility 9 miles    
Events Rain , Thunderstorm    
T = Trace of Precipitation, MM = Missing Value Source: NWS Daily Summary

Daily Weather History Graph

Daily Weather History Graph

Search for Another Location

Airport or City:

Trip Planner

Search our weather history database for the weather conditions in past years. The results will help you decide how hot, cold, wet, or windy it might be!

Date:

Astronomy

May. 30, 2013 Rise Set
Actual Time 5:27 AM CDT 8:14 PM CDT
Civil Twilight 4:55 AM CDT 8:46 PM CDT
Nautical Twilight 4:14 AM CDT 9:27 PM CDT
Astronomical Twilight 3:28 AM CDT 10:13 PM CDT
Moon 12:15 AM CDT (5/30) 11:35 AM CDT (5/30)
Length of Visible Light 15h 51m
Length of Day
14h 47m
Waning Gibbous, 62% of the Moon is Illuminated
May 30
Waning Gibbous
May 31
Last Quarter
Jun 8
New
Jun 16
First Quarter
Jun 23
Full

Hourly Weather History & Observations

Time (CDT) Temp. Heat Index Dew Point Humidity Pressure Visibility Wind Dir Wind Speed Gust Speed Precip Events Conditions
12:53 AM 72.0 °F - 63.0 °F 73% 29.96 in 10.0 mi South 12.7 mph - N/A   Clear
1:53 AM 71.1 °F - 63.0 °F 75% 29.95 in 10.0 mi SSE 10.4 mph - N/A   Clear
2:53 AM 72.0 °F - 63.0 °F 73% 29.93 in 10.0 mi SSE 15.0 mph - N/A   Scattered Clouds
3:53 AM 71.1 °F - 64.0 °F 78% 29.93 in 10.0 mi SSE 11.5 mph - N/A   Partly Cloudy
4:53 AM 72.0 °F - 64.0 °F 76% 29.93 in 10.0 mi South 15.0 mph - N/A   Scattered Clouds
5:53 AM 73.0 °F - 64.9 °F 76% 29.94 in 10.0 mi South 17.3 mph - N/A   Scattered Clouds
6:53 AM 73.9 °F - 64.9 °F 73% 29.95 in 10.0 mi South 18.4 mph 28.8 mph N/A   Clear
7:53 AM 75.9 °F - 66.0 °F 71% 29.95 in 10.0 mi South 20.7 mph 27.6 mph N/A   Scattered Clouds
8:53 AM 77.0 °F - 66.0 °F 69% 29.95 in 10.0 mi SSE 19.6 mph 31.1 mph N/A   Scattered Clouds
9:53 AM 81.0 °F 83.3 °F 66.9 °F 62% 29.94 in 10.0 mi South 25.3 mph 31.1 mph N/A   Partly Cloudy
10:13 AM 78.8 °F - 66.2 °F 65% 29.96 in 10.0 mi South 24.2 mph 33.4 mph N/A   Mostly Cloudy
10:53 AM 82.0 °F 84.5 °F 66.9 °F 60% 29.94 in 10.0 mi South 26.5 mph 34.5 mph N/A   Mostly Cloudy
11:03 AM 82.4 °F 84.6 °F 66.2 °F 58% 29.96 in 10.0 mi South 23.0 mph 35.7 mph N/A   Scattered Clouds
11:53 AM 82.9 °F 85.4 °F 66.9 °F 58% 29.94 in 10.0 mi South 28.8 mph 35.7 mph N/A   Mostly Cloudy
12:53 PM 87.1 °F 89.2 °F 66.0 °F 49% 29.92 in 10.0 mi South 29.9 mph 42.6 mph N/A   Mostly Cloudy
1:53 PM 84.9 °F 86.6 °F 64.9 °F 51% 29.91 in 10.0 mi South 29.9 mph 38.0 mph N/A   Partly Cloudy
2:53 PM 88.0 °F 89.3 °F 64.0 °F 45% 29.88 in 10.0 mi South 27.6 mph 40.3 mph N/A   Mostly Cloudy
3:53 PM 88.0 °F 88.4 °F 62.1 °F 42% 29.86 in 10.0 mi South 33.4 mph 47.2 mph N/A   Partly Cloudy
4:53 PM 82.9 °F 84.6 °F 64.9 °F 54% 29.86 in 10.0 mi South 21.9 mph 39.1 mph N/A   Partly Cloudy
5:53 PM 84.0 °F 86.3 °F 66.0 °F 55% 29.86 in 10.0 mi South 21.9 mph 32.2 mph N/A   Overcast
6:53 PM 82.0 °F 84.5 °F 66.9 °F 60% 29.85 in 10.0 mi South 24.2 mph 33.4 mph N/A   Partly Cloudy
7:53 PM 80.1 °F 82.1 °F 66.0 °F 62% 29.86 in 10.0 mi South 20.7 mph 29.9 mph N/A   Clear
8:53 PM 77.0 °F - 66.0 °F 69% 29.87 in 10.0 mi South 18.4 mph - N/A   Clear
9:25 PM 73.4 °F - 64.4 °F 73% 29.94 in 3.0 mi SSW 39.1 mph 62.1 mph N/A Thunderstorm Unknown
9:27 PM 69.8 °F - 62.6 °F 78% 29.94 in 1.5 mi SSW 26.5 mph 62.1 mph 0.00 in Rain , Thunderstorm Heavy Thunderstorms and Rain
9:37 PM 68.0 °F - 62.6 °F 83% 29.94 in 3.0 mi SSW 20.7 mph 33.4 mph N/A Rain , Thunderstorm Thunderstorms and Rain
9:53 PM 66.9 °F - 63.0 °F 87% 29.92 in 9.0 mi SSW 15.0 mph - N/A Rain Light Rain
10:10 PM 68.0 °F - 62.6 °F 83% 29.93 in 10.0 mi South 13.8 mph - N/A Rain , Thunderstorm Light Rain
10:29 PM 68.0 °F - 64.4 °F 88% 29.93 in 10.0 mi South 11.5 mph - N/A Rain Light Rain
10:53 PM 68.0 °F - 63.0 °F 84% 29.91 in 10.0 mi South 8.1 mph - N/A   Partly Cloudy
11:06 PM 68.0 °F - 64.4 °F 88% 29.94 in 10.0 mi South 11.5 mph - N/A Thunderstorm Mostly Cloudy
11:14 PM 69.8 °F - 64.4 °F 83% 29.94 in 1.8 mi South 23.0 mph 31.1 mph N/A Rain , Thunderstorm Heavy Thunderstorms and Rain
11:20 PM 69.8 °F - 64.4 °F 83% 29.94 in 3.0 mi South 16.1 mph 31.1 mph N/A Rain , Thunderstorm Light Thunderstorms and Rain
11:53 PM 68.0 °F - 64.0 °F 87% 29.91 in 6.0 mi South 16.1 mph - N/A Rain Rain